Springfield, OH

1:51 PM EDT on March 29, 2017 (GMT -0400)
Springfield-Beckley Municipal

Weather History for KSGH - April, 2014

Change the Weather History Date:

Thursday, April 24, 2014

  Actual Average (KFFO) Record (KFFO)
Temperature  
Mean Temperature 52 °F -  
Max Temperature 63 °F 63 °F 78 °F (2008)
Min Temperature 41 °F 41 °F 29 °F (2015)
Degree Days  
Heating Degree Days 13    
Growing Degree Days 2 (Base 50)    
Moisture  
Dew Point 26 °F    
Average Humidity 42    
Maximum Humidity 76    
Minimum Humidity 20    
Precipitation  
Precipitation 0.00 in - - ()
Sea Level Pressure  
Sea Level Pressure 30.03 in    
Wind  
Wind Speed 10 mph (ESE)    
Max Wind Speed 20 mph    
Max Gust Speed 24 mph    
Visibility 7 miles    
Events      
Averages and records for this station are not official NWS values.
T = Trace of Precipitation, MM = Missing Value Source: NWS Daily Summary

Daily Weather History Graph

Daily Weather History Graph

Search for Another Location

Airport or City:

Trip Planner

Search our weather history database for the weather conditions in past years. The results will help you decide how hot, cold, wet, or windy it might be!

Date:

Astronomy

Apr. 24, 2014 Rise Set
Actual Time 6:44 AM EDT 8:22 PM EDT
Civil Twilight 6:16 AM EDT 8:51 PM EDT
Nautical Twilight 5:41 AM EDT 9:26 PM EDT
Astronomical Twilight 5:04 AM EDT 10:03 PM EDT
Moon 3:54 AM EDT (4/24) 3:37 PM EDT (4/24)
Length of Visible Light 14h 35m
Length of Day
13h 37m
Waning Crescent, 24% of the Moon is Illuminated
Apr 24
Waning Crescent
Apr 29
New
May 6
First Quarter
May 14
Full
May 21
Last Quarter

Hourly Weather History & Observations

Time (EDT) Temp. Windchill Dew Point Humidity Pressure Visibility Wind Dir Wind Speed Gust Speed Precip Events Conditions
12:56 AM 41.0 °F 39.0 °F 34.0 °F 76% 30.12 in 7.0 mi East 3.5 mph - N/A   Clear
1:56 AM 43.0 °F 38.8 °F 34.9 °F 73% 30.12 in 7.0 mi East 6.9 mph - N/A   Clear
2:56 AM 43.9 °F 38.8 °F 34.0 °F 68% 30.10 in 7.0 mi ESE 9.2 mph - N/A   Overcast
3:56 AM 43.9 °F 39.9 °F 32.9 °F 65% 30.10 in 7.0 mi ESE 6.9 mph - N/A   Overcast
4:56 AM 43.9 °F 37.5 °F 31.1 °F 61% 30.11 in 8.0 mi East 12.7 mph - N/A   Overcast
5:56 AM 41.9 °F 36.9 °F 31.1 °F 66% 30.13 in 8.0 mi East 8.1 mph - N/A   Scattered Clouds
6:56 AM 41.9 °F 36.3 °F 32.0 °F 68% 30.14 in 7.0 mi ESE 9.2 mph - N/A   Mostly Cloudy
7:56 AM 43.0 °F 36.4 °F 32.9 °F 68% 30.15 in 6.0 mi East 12.7 mph - N/A   Haze
8:56 AM 45.9 °F 39.7 °F 27.1 °F 48% 30.16 in 7.0 mi ESE 13.8 mph - N/A   Partly Cloudy
9:56 AM 50.9 °F - 19.0 °F 28% 30.14 in 6.0 mi ESE 19.6 mph - N/A   Haze
10:56 AM 50.0 °F - 19.0 °F 29% 30.14 in 7.0 mi East 15.0 mph - N/A   Partly Cloudy
11:56 AM 54.9 °F - 20.1 °F 26% 30.11 in 7.0 mi East 19.6 mph - N/A   Partly Cloudy
12:56 PM 57.9 °F - 18.1 °F 21% 30.09 in 7.0 mi ESE 16.1 mph 24.2 mph N/A   Partly Cloudy
1:56 PM 59.9 °F - 21.0 °F 22% 30.05 in 7.0 mi East 13.8 mph 18.4 mph N/A   Partly Cloudy
2:56 PM 61.9 °F - 20.1 °F 20% 30.02 in 7.0 mi ESE 13.8 mph - N/A   Clear
3:56 PM 63.0 °F - 22.1 °F 21% 29.99 in 7.0 mi East 12.7 mph - N/A   Partly Cloudy
4:56 PM 61.9 °F - 23.0 °F 23% 29.97 in 7.0 mi East 12.7 mph - N/A   Clear
5:56 PM 61.9 °F - 24.1 °F 24% 29.95 in 7.0 mi East 13.8 mph - N/A   Scattered Clouds
6:56 PM 61.0 °F - 23.0 °F 23% 29.92 in 6.0 mi East 12.7 mph - N/A   Haze
7:56 PM 57.9 °F - 25.2 °F 28% 29.88 in 7.0 mi East 12.7 mph - N/A   Clear
8:56 PM 54.0 °F - 27.1 °F 36% 29.88 in 7.0 mi East 10.4 mph - N/A   Clear
9:56 PM 52.9 °F - 28.0 °F 38% 29.88 in 7.0 mi East 11.5 mph - N/A   Clear
10:56 PM 52.9 °F - 28.0 °F 38% 29.86 in 8.0 mi ESE 13.8 mph - N/A   Clear
11:56 PM 54.0 °F - 27.1 °F 36% 29.82 in 8.0 mi ESE 13.8 mph - N/A   Scattered Clouds